Overview Statistics Trail Chart Weather Telemetry Raw packets
 

This is the latest recevied weather packets stored in our database for station/object KGRR-WX. If no packets are shown the sender has not sent any weather packets the latest 10 day(s).

<< 9 10 11 12 13 14 15 >>
Time Temp. Humidity Pressure Rain* Wind** Luminosity Snow
1788398107 26.11° C 72% 984.4 hPa 0 mm - - -
1788397207 26.67° C 72% 984.4 hPa 0 mm - - -
1788396307 27.22° C 63% 983.7 hPa 0 mm - - -
1788395407 27.22° C 64% 984.6 hPa 0 mm - - -
1788394538 -17.78° C 100% - 0 mm - - -
1788393605 28.89° C 64% 984.6 hPa 0 mm - - -
1788392706 28.89° C 55% 984.7 hPa 0 mm - - -
1788391807 29.44° C 57% 984.7 hPa 0 mm - - -
1788390905 30.56° C 57% 984.7 hPa 0 mm - - -
1788390016 30.56° C 57% 984.7 hPa 0 mm - - -
1788389106 31.11° C 49% 984.7 hPa 0 mm - - -
1788388206 31.67° C 47% 985.1 hPa 0 mm - - -
1788387306 31.67° C 47% 985.1 hPa 0 mm - - -
1788386416 32.22° C 47% 985.1 hPa 0 mm - - -
1788385506 -17.78° C 100% - 0 mm - - -
1788384607 32.22° C 46% 985 hPa 0 mm - - -
1788383706 32.22° C 46% 985 hPa 0 mm - - -
1788382805 32.22° C 46% 985 hPa 0 mm - - -
1788381983 -17.78° C 100% - 0 mm - - -
1788381006 32.78° C 47% 985.3 hPa 0 mm - - -
1788380105 32.78° C 47% 985.3 hPa 0 mm - - -
1788379219 32.78° C 46% 984.9 hPa 0 mm - - -
1788378305 32.78° C 49% 985.7 hPa 0 mm - - -
1788377405 32.22° C 49% 985.7 hPa 0 mm - - -
1788376504 32.78° C 49% 985.7 hPa 0 mm - - -

* Rain latest hour (hover to see other rain measurements)
** Current wind speed in m/s (hover to see current wind gust speed)